Location: Middelsbur
(53.6609°N, 7.5020°E)
Time: 23:11:16
(UTC+00:00)

Genesis I - Pass Details

Date: 06 July 2020
Orbit: 509 x 513 km, 64.5° (Epoch: 03 August)

Event Time Altitude Azimuth Distance (km) Brightness Sun altitude
Exits shadow 23:35:48 - 243° (WSW) 2,362 6.3 -13.8°
Reaches altitude 10° 23:37:23 10° 248° (WSW) 1,736 5.6 -13.8°
Maximum altitude 23:41:09 47° 324° (NW) 691 4.2 -13.8°
Drops below altitude 10° 23:44:55 10° 39° (NE) 1,742 6.7 -13.8°
Sets 23:47:10 0° 45° (NE) 2,631 7.6 -13.7°
